{"data":{"norad_id":48073,"epoch":"2026-09-19T22:15:01.598976Z","epoch_age_seconds":67691,"freshness":"FRESH","line1":"1 48073U 21025AH  26262.92710184  .00000053  00000+0  11150-3 0  9990","line2":"2 48073  87.8921 301.3607 0001834  85.4810 274.6529 13.13469679265929","mean_motion":13.13469679,"eccentricity":0.0001834,"inclination_deg":87.8921,"raan_deg":301.3607,"arg_perigee_deg":85.481,"mean_anomaly_deg":274.6529,"bstar":0.0001115,"rev_number":26592,"period_min":109.63328830676,"perigee_km":1208.3750146494,"apogee_km":1211.1582577031,"semimajor_km":7587.9036361763,"source":"CELESTRAK","updated_at":"2026-09-20T09:00:44.590846Z"}}